When you browse on this site, cookies collect data to enhance your experience and personalize the content and advertising you see.
Visit our Privacy Policy to learn more. By continuing to use the site, you agree to this use of cookies and data.
  • en Suisse
  • Liste des pays
  • À 7 jours
  • Température de l'eau
  • Carte satellitaire
  • Carte météo
  • Widgets météo
  • user-avatar
    Se connecter

    Météo par heure à Sidi-bel-Abbès

    Ce jour, 23 Janvier, Mercredi

    Heure Température Précipitation Vent Pression Humidité
    00:00 +5°C° 0 mm 13 m/s 717 mmHg 89%
    01:00 +5°C° 2.4 mm 13 m/s 716 mmHg 90%
    02:00 +5°C° 2.4 mm 13 m/s 716 mmHg 90%
    03:00 +5°C° 2.4 mm 13 m/s 716 mmHg 91%
    04:00 +7°C° 1.9 mm 13 m/s 716 mmHg 90%
    05:00 +7°C° 1.9 mm 13 m/s 715 mmHg 89%
    06:00 +7°C° 0 mm 13 m/s 715 mmHg 89%
    07:00 +7°C° 1 mm 13 m/s 715 mmHg 88%
    08:00 +7°C° 1 mm 13 m/s 715 mmHg 87%
    09:00 +7°C° 1 mm 13 m/s 715 mmHg 86%
    10:00 +8°C° 0.1 mm 13 m/s 715 mmHg 85%
    11:00 +8°C° 0.1 mm 14 m/s 715 mmHg 83%
    12:00 +8°C° 0.1 mm 14 m/s 715 mmHg 82%
    13:00 +8°C° 0.1 mm 14 m/s 715 mmHg 82%
    14:00 +8°C° 0.1 mm 14 m/s 715 mmHg 83%
    15:00 +8°C° 0.1 mm 14 m/s 715 mmHg 83%
    16:00 +8°C° 0.1 mm 14 m/s 715 mmHg 84%
    17:00 +8°C° 0.1 mm 14 m/s 715 mmHg 85%
    18:00 +8°C° 0.1 mm 13 m/s 715 mmHg 86%
    19:00 +8°C° 0.3 mm 13 m/s 715 mmHg 87%
    20:00 +8°C° 0.3 mm 13 m/s 715 mmHg 87%
    21:00 +8°C° 0.3 mm 12 m/s 716 mmHg 87%
    22:00 +8°C° 0.3 mm 12 m/s 716 mmHg 88%
    23:00 +8°C° 0.3 mm 12 m/s 716 mmHg 88%

    Demain, 24 Janvier, Jeudi

    Heure Température Précipitation Vent Pression Humidité
    00:00 +8°C° 0.3 mm 12 m/s 716 mmHg 89%
    01:00 +8°C° 0.1 mm 12 m/s 715 mmHg 89%
    02:00 +8°C° 0.1 mm 12 m/s 715 mmHg 89%
    03:00 +8°C° 0.1 mm 12 m/s 715 mmHg 89%
    04:00 +8°C° 0.1 mm 11 m/s 715 mmHg 89%
    05:00 +8°C° 0.1 mm 11 m/s 714 mmHg 89%
    06:00 +8°C° 0.1 mm 10 m/s 714 mmHg 90%
    07:00 +8°C° 0.1 mm 10 m/s 714 mmHg 89%
    08:00 +8°C° 0.1 mm 11 m/s 715 mmHg 89%
    09:00 +8°C° 0.1 mm 11 m/s 715 mmHg 89%
    10:00 +9°C° 0.2 mm 11 m/s 715 mmHg 87%
    11:00 +9°C° 0.2 mm 11 m/s 715 mmHg 86%
    12:00 +9°C° 0.2 mm 12 m/s 715 mmHg 85%
    13:00 +11°C° 0.4 mm 11 m/s 715 mmHg 84%
    14:00 +11°C° 0.4 mm 11 m/s 715 mmHg 82%
    15:00 +11°C° 0.4 mm 11 m/s 715 mmHg 81%
    16:00 +11°C° 0.2 mm 10 m/s 715 mmHg 85%
    17:00 +10°C° 0.2 mm 8 m/s 715 mmHg 89%
    18:00 +10°C° 0.2 mm 7 m/s 716 mmHg 93%
    19:00 +10°C° 0.3 mm 7 m/s 716 mmHg 93%
    20:00 +10°C° 0.3 mm 6 m/s 716 mmHg 92%
    21:00 +10°C° 0.3 mm 5 m/s 717 mmHg 91%
    22:00 +9°C° 0.1 mm 5 m/s 717 mmHg 92%
    23:00 +9°C° 0.1 mm 5 m/s 717 mmHg 92%

    Après-demain, 25 Janvier, Vendredi

    Heure Température Précipitation Vent Pression Humidité
    00:00 +10°C° 0.1 mm 4 m/s 717 mmHg 93%
    01:00 +9°C° 0.1 mm 5 m/s 717 mmHg 93%
    02:00 +9°C° 0.1 mm 5 m/s 717 mmHg 92%
    03:00 +9°C° 0.1 mm 6 m/s 717 mmHg 91%
    04:00 +9°C° 0.1 mm 5 m/s 718 mmHg 91%
    05:00 +8°C° 0.1 mm 5 m/s 718 mmHg 91%
    06:00 +8°C° 0.1 mm 4 m/s 718 mmHg 91%
    07:00 +10°C° 0 mm 4 m/s 719 mmHg 85%
    08:00 +9°C° 0 mm 5 m/s 719 mmHg 79%
    09:00 +10°C° 0 mm 5 m/s 720 mmHg 74%
    10:00 +12°C° 0 mm 5 m/s 720 mmHg 69%
    11:00 +11°C° 0 mm 6 m/s 721 mmHg 64%
    12:00 +12°C° 0 mm 7 m/s 721 mmHg 58%
    13:00 +13°C° 0 mm 6 m/s 721 mmHg 57%
    14:00 +13°C° 0 mm 6 m/s 720 mmHg 55%
    15:00 +13°C° 0 mm 6 m/s 720 mmHg 54%
    16:00 +12°C° 0 mm 4 m/s 720 mmHg 58%
    17:00 +11°C° 0 mm 3 m/s 720 mmHg 61%
    18:00 +10°C° 0 mm 2 m/s 720 mmHg 65%
    19:00 +10°C° 0 mm 2 m/s 720 mmHg 65%
    20:00 +10°C° 0 mm 2 m/s 721 mmHg 64%
    21:00 +9°C° 0 mm 2 m/s 721 mmHg 64%
    22:00 +9°C° 0 mm 2 m/s 721 mmHg 63%
    23:00 +9°C° 0 mm 2 m/s 721 mmHg 63%

    26 Janvier, Samedi

    Heure Température Précipitation Vent Pression Humidité
    00:00 +9°C° 0 mm 2 m/s 721 mmHg 62%
    01:00 +9°C° 0 mm 2 m/s 720 mmHg 63%
    02:00 +8°C° 0 mm 2 m/s 720 mmHg 64%
    03:00 +9°C° 0 mm 1 m/s 720 mmHg 65%
    04:00 +9°C° 0 mm 1 m/s 720 mmHg 67%
    05:00 +8°C° 0 mm 1 m/s 720 mmHg 69%
    06:00 +8°C° 0 mm 1 m/s 720 mmHg 71%
    07:00 +10°C° 0 mm 1 m/s 721 mmHg 66%
    08:00 +11°C° 0 mm 1 m/s 722 mmHg 61%
    09:00 +13°C° 0 mm 1 m/s 722 mmHg 56%
    10:00 +14°C° 0 mm 2 m/s 722 mmHg 53%
    11:00 +14°C° 0 mm 2 m/s 722 mmHg 51%
    12:00 +15°C° 0 mm 2 m/s 722 mmHg 48%
    13:00 +16°C° 0 mm 2 m/s 722 mmHg 46%
    14:00 +16°C° 0 mm 3 m/s 722 mmHg 45%
    15:00 +16°C° 0 mm 3 m/s 721 mmHg 44%
    16:00 +15°C° 0 mm 2 m/s 721 mmHg 51%
    17:00 +13°C° 0 mm 1 m/s 721 mmHg 58%
    18:00 +11°C° 0 mm 0 m/s 720 mmHg 66%
    19:00 +11°C° 0 mm 1 m/s 720 mmHg 64%
    20:00 +11°C° 0 mm 1 m/s 721 mmHg 63%
    21:00 +11°C° 0 mm 1 m/s 721 mmHg 62%
    22:00 +11°C° 0 mm 1 m/s 721 mmHg 60%
    23:00 +10°C° 0 mm 2 m/s 720 mmHg 58%

    27 Janvier, Dimanche

    Heure Température Précipitation Vent Pression Humidité
    00:00 +10°C° 0 mm 2 m/s 720 mmHg 55%
    01:00 +9°C° 0 mm 2 m/s 720 mmHg 55%
    02:00 +9°C° 0 mm 2 m/s 719 mmHg 55%
    03:00 +9°C° 0 mm 2 m/s 719 mmHg 55%
    04:00 +9°C° 0 mm 2 m/s 718 mmHg 57%
    05:00 +8°C° 0 mm 2 m/s 718 mmHg 58%
    06:00 +8°C° 0 mm 2 m/s 718 mmHg 60%
    07:00 +10°C° 0 mm 2 m/s 718 mmHg 58%
    08:00 +11°C° 0 mm 3 m/s 718 mmHg 56%
    09:00 +12°C° 0 mm 3 m/s 719 mmHg 53%
    10:00 +13°C° 0 mm 6 m/s 718 mmHg 53%
    11:00 +13°C° 0 mm 8 m/s 718 mmHg 52%
    12:00 +14°C° 0 mm 11 m/s 718 mmHg 52%
    13:00 +14°C° 0 mm 12 m/s 718 mmHg 55%
    14:00 +13°C° 0 mm 12 m/s 717 mmHg 58%
    15:00 +13°C° 0 mm 12 m/s 716 mmHg 61%
    16:00 +12°C° 0.1 mm 10 m/s 717 mmHg 69%
    17:00 +10°C° 0.1 mm 8 m/s 717 mmHg 76%
    18:00 +9°C° 0.1 mm 6 m/s 717 mmHg 84%
    19:00 +9°C° 0.1 mm 5 m/s 717 mmHg 84%
    20:00 +8°C° 0.1 mm 4 m/s 718 mmHg 85%
    21:00 +9°C° 0.1 mm 3 m/s 718 mmHg 85%
    22:00 +8°C° 0.1 mm 4 m/s 719 mmHg 80%
    23:00 +8°C° 0.1 mm 4 m/s 719 mmHg 74%

    28 Janvier, Lundi

    Heure Température Précipitation Vent Pression Humidité
    00:00 +7°C° 0.1 mm 4 m/s 719 mmHg 68%
    01:00 +8°C° 0.5 mm 3 m/s 719 mmHg 72%
    02:00 +8°C° 0.5 mm 3 m/s 718 mmHg 75%
    03:00 +7°C° 0.5 mm 3 m/s 718 mmHg 79%
    04:00 +7°C° 1 mm 3 m/s 718 mmHg 77%
    05:00 +7°C° 1 mm 3 m/s 719 mmHg 75%
    06:00 +5°C° 1 mm 4 m/s 719 mmHg 73%
    07:00 +5°C° 0.3 mm 4 m/s 719 mmHg 70%
    08:00 +5°C° 0.3 mm 4 m/s 720 mmHg 67%
    09:00 +5°C° 0.3 mm 4 m/s 720 mmHg 64%
    10:00 +6°C° 0 mm 4 m/s 720 mmHg 60%
    11:00 +7°C° 0 mm 5 m/s 720 mmHg 56%
    12:00 +8°C° 0 mm 5 m/s 720 mmHg 52%
    13:00 +8°C° 0 mm 6 m/s 720 mmHg 49%
    14:00 +8°C° 0 mm 6 m/s 719 mmHg 47%
    15:00 +9°C° 0 mm 6 m/s 719 mmHg 45%
    16:00 +8°C° 0.2 mm 7 m/s 719 mmHg 53%
    17:00 +8°C° 0.2 mm 7 m/s 719 mmHg 60%
    18:00 +6°C° 0.2 mm 8 m/s 719 mmHg 68%
    19:00 +6°C° 0.2 mm 8 m/s 719 mmHg 71%
    20:00 +6°C° 0.2 mm 7 m/s 719 mmHg 73%
    21:00 +5°C° 0.2 mm 7 m/s 719 mmHg 76%
    22:00 +5°C° 0.2 mm 7 m/s 720 mmHg 76%
    23:00 +5°C° 0.2 mm 7 m/s 720 mmHg 76%
    Voir plus